STARLINK-37840

Last updated on Sun Aug 09 2026 00:02:04 GMT+0000 (Coordinated Universal Time)

1 69965U 26157Y 26220.15661282 .00023451 00000+0 42807-3 0 9997 2 69965 53.1593 177.4103 0001246 92.1914 267.9238 15.49333530 4709
UTC large
Height (km)
Speed (km/s)
/
Latitude / Longitude
Inclination (degrees)
Orbital Period (minutes)
Azimuth
Elevation
Range (km)
Doppler Factor

Next 0 passes for location: London (51.5072 / 0.1276)

No passes found over London.
STARLINK-37840